sat.trackr.live / text

‹ back to catalog

STARLINK-3999

NORAD 52704 · 2022-053BA

PAYLOAD ACTIVE UNKNOWN

§ Identity

Operator
Country
US
Launch date
2022-05-18
Launch site
AFETR
Launch vehicle
Mass (kg)
RCS (m²)

Purposes: comms

External: N2YO · Heavens-Above · Gunter

§ Orbital elements

Epoch: 2026-09-19T18:36:05.653152Z

Period
93.79 min
Inclination
53.1608°
Eccentricity
0.0001206
Mean motion
15.35393440 rev/d
Perigee alt
458.9 km
Apogee alt
460.6 km
Semi-major
6,837.9 km
B*
2.2985e-5
RAAN
330.2845°
Arg perigee
84.3411°
Mean anomaly
275.7729°
Rev number
24,078

§ Raw data

STARLINK-39991 52704U 22053BA  26262.77506543  .00000421  00000+0  22985-4 0  99912 52704  53.1608 330.2845 0001206  84.3411 275.7729 15.35393440240785

JSON: /api/v1/satellites/52704 · /tle

For live sub-satellite position, see the globe view (requires WebGL).

§ Visibility from observer

Set your observer location to see the next 7 days of passes ≥ 10°. The values pass through the URL so the page stays shareable.

No JS? Fill the form by hand. The geolocation button needs JavaScript.